Location: Home
(42.5358°N, 72.7383°W)
Time: 04:52:49
(UTC-05:00)

A-11 Canister half - Pass Details

Date: 06 December 2021
Orbit: 1524 x 1684 km, 47.3° (Epoch: 17 January)

Event Time Altitude Azimuth Distance (km) Brightness Sun altitude
Exits shadow 01:37:44 21° 67° (ENE) 3,142 10.8 -58.7°
Drops below altitude 10° 01:40:16 10° 67° (ENE) 3,909 11.5 -58.3°
Sets 01:43:23 0° 67° (ENE) 4,880 12.1 -57.8°
